Regional Weather Roundup
Issued by NWS

Home | Current Version | Previous Version | Graphics & Text | Print | Product List | Glossary On
Versions: 1 2 3 4 5 6 7 8 9 10 11 12 13 14 15 16 17 18 19 20 21 22 23 24 25 26 27 28 29 30 31 32 33 34 35 36 37 38 39 40 41 42 43 44 45 46 47 48 49 50
000
ASUS44 KMEG 270410
RWRTN
TENNESSEE HOURLY STATE WEATHER ROUNDUP
NATIONAL WEATHER SERVICE MEMPHIS TN
1100 PM CDT TUE MAY 26 2015

TNZ002-004-019-021-049-052-054-088>092-270500-
WEST TENNESSEE

CITY           SKY/WX    TMP DP  RH WIND       PRES   REMARKS
MEMPHIS INTL   CLEAR     71  65  81 S6        30.09S
NWS MEMPHIS      N/A     71 N/A N/A MISG        N/A
JACKSON        CLEAR     67  63  87 S5        30.10R
DYERSBURG      CLEAR     66  54  63 CALM      30.09F
PARIS          CLEAR     63  61  94 CALM      30.10S
LEXINGTON      PTCLDY    70  66  88 CALM      30.11R
$$

TNZ008-025-027-028-033-062-065-066-270500-
NORTH MIDDLE TENNESSEE

CITY           SKY/WX    TMP DP  RH WIND       PRES   REMARKS
NASHVILLE      PTCLDY    70  67  90 S6        30.12R
CLARKSVILLE    CLEAR     68  64  87 CALM      30.09R
SMYRNA         CLEAR     71  67  87 S3        30.13R
COOKEVILLE     MOCLDY    70  68  94 S3        30.15R
CROSSVILLE     CLOUDY    68  65  90 S8        30.21R
$$

TNZ061-075-076-078-094-096-097-270500-
SOUTH MIDDLE TENNESSEE

CITY           SKY/WX    TMP DP  RH WIND       PRES   REMARKS
FAYETTEVILLE   CLEAR    N/A N/A N/A MISG      30.17R
TULLAHOMA      PTCLDY    70  64  83 S3        30.18R
WINCHESTER     PTCLDY    70  66  88 S6        30.18R
MCMINNVILLE    PTCLDY    72  70  94 S3        30.17R
COLUMBIA       CLEAR     70  66  88 S6        30.13R
SHELBYVILLE    PTCLDY    70  66  88 S5        30.16R
$$

TNZ017-018-042-046-047-270500-
NORTHEAST TENNESSEE

CITY           SKY/WX    TMP DP  RH WIND       PRES   REMARKS
TRI CITIES     LGT RAIN  73  66  78 S6        30.20R
ELIZABETHTON   LGT RAIN  66  66 100 CALM      30.23R
$$

TNZ012-013-036-069-073-074-270500-
CENTRAL EAST TENNESSEE

CITY           SKY/WX    TMP DP  RH WIND       PRES   REMARKS
KNOXVILLE      MOCLDY    71  61  70 SW8       30.17S
OAK RIDGE      CLOUDY    70  67  90 SW3       30.20R
GATLINBURG     MOCLDY    68  61  77 CALM      30.18R
MORRISTOWN     CLEAR     72  63  73 SW7       30.20S
$$

TNZ083-085-099-270500-
SOUTHEAST TENNESSEE

CITY           SKY/WX    TMP DP  RH WIND       PRES   REMARKS
CHATTANOOGA    MOCLDY    68  65  90 CALM      30.20R
$$

SKY/WX REPORTED AS FAIR MEANS FEW OR NO CLOUDS BELOW
12 THOUSAND FEET.




USA.gov is the U.S. government's official web portal to all federal, state and local government web resources and services.